Starlink 31481

operational
NORAD ID: 59541 Int'l Des: 2024-074 Owner: SPXS Country: US Constellation: starlink
LEOCIRCULAR

关于 Starlink 31481

正在加载描述...

实时位置

正在加载3D地球...

即将过境

高度历史

Altitude vs Time

uPlot chart will show altitude changes over time

两行轨道根数

1 59541U 24074H 25351.26442307 .00000329 00000-0 21465-4 0 9991
2 59541 43.0027 88.5723 0000929 272.5041 87.5705 15.27584425 93418
Epoch: Dec 17, 2025 • Age: 6 hours

当前状态

高度 486.5 km
速度 7.62 km/s
星下点 -18.02°S, 152.85°E
发射日期 Apr 18, 2024
运行时间 1.6 years
类型 internet

技术详情

分类 Payload
质量 730.00 kg
干质量 700.00 kg
总质量 730.00 kg
长度 0.30 m
直径 4.10 m
跨度 29.00 m
形状 Box + pan
制造商 SPXS
平台类型 Starlink V2M
阶段状态 In Orbit
所有者/国家 SPXS/US

大型星座

Loading constellations...